User: anonymous   Login
Location: ???????
(55.5931°N, 39.3286°E)
Time: 09:40:21
(UTC+00:00)
Language:

Envisat - Orbit

View from above orbital plane
View from above orbital plane
View from above satellite
View from above satellite

Ground track
Ground track

The orbit data is extracted from the following two-line orbital elements,

1 27386U 02009A   24169.92922177  .00000184  00000-0  73935-4 0  9992
2 27386  98.2821 130.9917 0001344  90.8286 334.7267 14.38591203168613
Epoch (UTC): 17 June 2024 22:18:04
Eccentricity: 0.0001344
inclination: 98.2821°
perigee height: 762 km
apogee height: 764 km
right ascension of ascending node: 130.9917°
argument of perigee: 90.8286°
revolutions per day: 14.38591203
mean anomaly at epoch: 334.7267°
orbit number at epoch: 16861

The dashed part of the orbit path shows where the satellite is in the earth's shadow,  

DLR